EW0624 Weather Reports


Display with metric or nautical units.
time (UTC)temp
F
wind
direction
speed
MPH
gust
MPH
rain 1hr
in
rain 24hr
in
rain mn
in
humidity
%
barometer
mb
20260903014904 63 300 0.0 0.0 0.00 0.00 0.00 98 1022.9
20260903013904 63 300 0.0 0.0 0.00 0.00 0.00 98 1023.0
20260903013404 63 300 0.0 0.0 0.00 0.00 0.00 98 1023.0
20260903012904 63 300 0.0 0.0 0.00 0.00 0.00 98 1023.0
20260903012403 64 300 0.0 0.0 0.00 0.00 0.00 98 1022.9
20260903011904 64 300 0.0 0.0 0.00 0.00 0.00 98 1022.9
20260903011404 64 300 0.0 1.0 0.00 0.00 0.00 98 1022.9
20260903010904 64 300 0.0 3.0 0.00 0.00 0.00 98 1023.0
20260903010404 64 54 0.0 1.0 0.00 0.00 0.00 98 1023.0
20260903005903 64 54 0.0 0.0 0.00 0.00 0.00 98 1023.0
20260903004904 64 54 0.0 0.0 0.00 0.00 0.00 98 1023.0
20260903004404 64 54 0.0 0.0 0.00 0.00 0.00 98 1023.0
20260903003904 64 54 0.0 0.0 0.00 0.00 0.00 98 1023.0
20260903003404 64 55 0.0 0.0 0.00 0.00 0.00 98 1023.0
20260903002904 64 55 0.0 0.0 0.00 0.00 0.00 97 1023.0
20260903002405 64 55 0.0 0.0 0.00 0.00 0.00 97 1023.0
20260903001904 64 54 0.0 0.0 0.00 0.00 0.00 97 1023.0
20260903001404 64 54 0.0 0.0 0.00 0.00 0.00 97 1022.9
20260903000904 64 54 0.0 0.0 0.00 0.00 0.00 97 1022.9
20260903000404 65 54 0.0 0.0 0.00 0.00 0.00 97 1022.9
20260902235904 65 54 0.0 0.0 0.00 0.00 0.00 97 1023.0
20260902235403 65 54 0.0 0.0 0.00 0.00 0.00 97 1023.0
20260902234904 65 54 0.0 0.0 0.00 0.00 0.00 97 1023.0
20260902233904 65 54 0.0 0.0 0.00 0.00 0.00 96 1023.1
20260902233404 65 54 0.0 0.0 0.00 0.00 0.00 96 1023.1
20260902232904 65 54 0.0 0.0 0.00 0.00 0.00 96 1023.2
20260902232403 65 54 0.0 0.0 0.00 0.00 0.00 96 1023.1
20260902231904 65 54 0.0 0.0 0.00 0.00 0.00 96 1023.1
20260902231404 65 54 0.0 0.0 0.00 0.00 0.00 96 1023.1
20260902230904 65 54 0.0 0.0 0.00 0.00 0.00 96 1023.2
20260902230404 65 54 0.0 0.0 0.00 0.00 0.00 96 1023.1
20260902225904 65 54 0.0 0.0 0.00 0.00 0.00 96 1023.1
20260902225404 65 54 0.0 0.0 0.00 0.00 0.00 96 1023.1
20260902224904 65 54 0.0 0.0 0.00 0.00 0.00 96 1023.1
20260902223904 66 54 0.0 0.0 0.00 0.00 0.00 95 1023.1
20260902223404 65 54 0.0 0.0 0.00 0.00 0.00 95 1023.0
20260902222904 66 54 0.0 0.0 0.00 0.00 0.00 95 1023.0
20260902222404 66 54 0.0 0.0 0.00 0.00 0.00 95 1023.0
20260902221904 66 54 0.0 0.0 0.00 0.00 0.00 95 1023.1
20260902221404 66 54 0.0 0.0 0.00 0.00 0.00 95 1023.1
20260902220906 66 55 0.0 1.0 0.00 0.00 0.00 95 1023.0
20260902215904 66 55 0.0 0.0 0.00 0.00 0.00 94 1023.0
20260902215407 66 55 0.0 1.0 0.00 0.00 0.00 94 1023.1
20260902214904 66 55 0.0 0.0 0.00 0.00 0.00 94 1023.0
20260902213404 67 55 0.0 0.0 0.00 0.00 0.00 94 1023.1
20260902212404 67 55 0.0 0.0 0.00 0.00 0.00 94 1023.2
20260902211404 67 55 0.0 0.0 0.00 0.00 0.00 94 1023.2
20260902210904 67 55 0.0 0.0 0.00 0.00 0.00 93 1023.2
20260902210404 67 55 0.0 0.0 0.00 0.00 0.00 93 1023.2
20260902204904 67 55 0.0 0.0 0.00 0.00 0.00 93 1023.2
20260902204404 67 55 0.0 0.0 0.00 0.00 0.00 93 1023.2
20260902203904 67 55 0.0 0.0 0.00 0.00 0.00 93 1023.2
20260902203404 68 55 0.0 2.0 0.00 0.00 0.00 93 1023.2
20260902202903 68 56 0.0 2.0 0.00 0.00 0.00 93 1023.2
20260902202404 68 56 0.0 2.0 0.00 0.00 0.00 93 1023.1
20260902201403 68 57 0.0 3.0 0.00 0.00 0.00 93 1023.1
20260902200904 68 55 2.0 3.0 0.00 0.00 0.00 93 1023.1
20260902200404 68 51 0.0 2.0 0.00 0.00 0.00 92 1023.0
20260902195905 68 51 1.0 3.0 0.00 0.00 0.00 92 1023.0
20260902195404 68 45 2.0 3.0 0.00 0.00 0.00 92 1022.9
20260902194904 68 30 1.0 3.0 0.00 0.00 0.00 92 1022.8
20260902194404 68 5 1.0 3.0 0.00 0.00 0.00 92 1022.8
20260902193904 68 41 0.0 3.0 0.00 0.00 0.00 92 1022.7
20260902193403 68 59 1.0 6.0 0.00 0.00 0.00 92 1022.6
20260902192904 68 26 4.0 7.0 0.00 0.00 0.00 92 1022.6
20260902192404 68 49 4.0 9.0 0.00 0.00 0.00 91 1022.5
20260902191904 68 52 3.0 8.0 0.00 0.00 0.00 91 1022.5
20260902191404 69 85 3.0 9.0 0.00 0.00 0.00 91 1022.5
20260902190904 69 50 6.0 12.0 0.00 0.00 0.00 91 1022.5
20260902190405 69 61 7.0 12.0 0.00 0.00 0.00 90 1022.4
20260902185903 69 67 5.0 10.0 0.00 0.00 0.00 90 1022.4
20260902185404 69 89 3.0 8.0 0.00 0.00 0.00 90 1022.4
20260902184904 69 71 3.0 5.0 0.00 0.00 0.00 89 1022.4
20260902184404 70 45 1.0 6.0 0.00 0.00 0.00 89 1022.4
20260902183404 70 50 4.0 8.0 0.00 0.00 0.00 88 1022.4
20260902182904 70 51 3.0 8.0 0.00 0.00 0.00 87 1022.4
20260902182404 71 68 5.0 8.0 0.00 0.00 0.00 86 1022.4
20260902181904 71 37 3.0 9.0 0.00 0.00 0.00 86 1022.4
20260902180905 71 41 3.0 7.0 0.00 0.00 0.00 84 1022.4
20260902180405 71 47 3.0 8.0 0.00 0.00 0.00 84 1022.4
20260902175904 72 49 5.0 9.0 0.00 0.00 0.00 83 1022.4
20260902175404 72 42 5.0 8.0 0.00 0.00 0.00 83 1022.4
20260902174904 72 47 5.0 9.0 0.00 0.00 0.00 82 1022.4
20260902174404 72 58 5.0 12.0 0.00 0.00 0.00 81 1022.3
20260902173904 72 38 5.0 7.0 0.00 0.00 0.00 81 1022.3
20260902173404 72 42 5.0 12.0 0.00 0.00 0.00 81 1022.3
20260902172404 72 53 3.0 12.0 0.00 0.00 0.00 81 1022.2
20260902171404 72 34 6.0 12.0 0.00 0.00 0.00 80 1022.2
20260902170905 72 38 7.0 12.0 0.00 0.00 0.00 80 1022.1
20260902170404 73 56 5.0 12.0 0.00 0.00 0.00 80 1022.1
20260902165904 73 39 7.0 12.0 0.00 0.00 0.00 79 1022.2
20260902164904 73 45 8.0 12.0 0.00 0.00 0.00 79 1022.2
20260902164404 73 38 7.0 13.0 0.00 0.00 0.00 79 1022.1
20260902163904 73 34 6.0 13.0 0.00 0.00 0.00 79 1022.1
20260902163404 73 38 6.0 13.0 0.00 0.00 0.00 78 1022.1
20260902162904 73 54 10.0 14.0 0.00 0.00 0.00 78 1022.1
20260902162404 73 39 6.0 14.0 0.00 0.00 0.00 78 1022.1
20260902161904 73 55 7.0 13.0 0.00 0.00 0.00 78 1022.1
20260902160904 73 39 10.0 16.0 0.00 0.00 0.00 77 1022.0
20260902155904 73 54 9.0 14.0 0.00 0.00 0.00 77 1022.1
20260902155404 73 38 9.0 15.0 0.00 0.00 0.00 78 1022.1
20260902154904 73 39 12.0 17.0 0.00 0.00 0.00 77 1022.1
20260902153404 74 41 6.0 15.0 0.00 0.00 0.00 77 1022.1
20260902152904 74 3 6.0 15.0 0.00 0.00 0.00 77 1022.1
20260902152403 74 28 11.0 17.0 0.00 0.00 0.00 77 1022.1
20260902151904 74 56 9.0 15.0 0.00 0.00 0.00 77 1022.1
20260902150904 75 30 12.0 16.0 0.00 0.00 0.00 77 1022.2
20260902145904 75 42 9.0 14.0 0.00 0.00 0.00 77 1022.2
20260902145404 75 55 7.0 13.0 0.00 0.00 0.00 77 1022.1
20260902143904 75 40 6.0 12.0 0.00 0.00 0.00 76 1022.1
20260902143404 75 44 5.0 12.0 0.00 0.00 0.00 77 1022.2
20260902142904 75 34 8.0 12.0 0.00 0.00 0.00 77 1022.2
20260902142404 75 9 7.0 14.0 0.00 0.00 0.00 76 1022.2
20260902141904 75 25 7.0 13.0 0.00 0.00 0.00 76 1022.2
20260902141404 75 15 6.0 14.0 0.00 0.00 0.00 76 1022.2
20260902140405 75 34 6.0 13.0 0.00 0.00 0.00 77 1022.2
20260902135905 75 44 6.0 12.0 0.00 0.00 0.00 77 1022.3
20260902135404 75 16 10.0 14.0 0.00 0.00 0.00 76 1022.3
20260902134904 75 18 2.0 9.0 0.00 0.00 0.00 78 1022.3
20260902134404 75 59 8.0 12.0 0.00 0.00 0.00 77 1022.3
20260902133904 75 44 5.0 14.0 0.00 0.00 0.00 78 1022.3
20260902133404 74 49 5.0 12.0 0.00 0.00 0.00 79 1022.3
20260902132903 74 26 7.0 13.0 0.00 0.00 0.00 79 1022.3
20260902132404 74 39 8.0 13.0 0.00 0.00 0.00 79 1022.3
20260902131904 74 54 6.0 12.0 0.00 0.00 0.00 79 1022.3
20260902131404 74 17 9.0 14.0 0.00 0.00 0.00 79 1022.3
20260902130904 74 38 5.0 12.0 0.00 0.00 0.00 78 1022.3
20260902130403 75 50 7.0 12.0 0.00 0.00 0.00 79 1022.3
20260902125904 74 5 3.0 9.0 0.00 0.00 0.00 79 1022.3
20260902125404 74 37 3.0 12.0 0.00 0.00 0.00 79 1022.4
20260902124904 74 5 5.0 12.0 0.00 0.00 0.00 79 1022.4
20260902124404 74 19 8.0 13.0 0.00 0.00 0.00 79 1022.5
20260902123404 75 1 5.0 9.0 0.00 0.00 0.00 78 1022.5
20260902122904 75 10 6.0 12.0 0.00 0.00 0.00 79 1022.4
20260902122404 74 57 3.0 8.0 0.00 0.00 0.00 80 1022.4
20260902121904 74 28 6.0 13.0 0.00 0.00 0.00 79 1022.4
20260902121403 74 20 7.0 12.0 0.00 0.00 0.00 79 1022.4
20260902120405 75 15 4.0 9.0 0.00 0.00 0.00 79 1022.5
20260902115904 75 4 4.0 12.0 0.00 0.00 0.00 79 1022.5
20260902115404 74 354 2.0 5.0 0.00 0.00 0.00 79 1022.5
20260902114904 74 287 1.0 9.0 0.00 0.00 0.00 79 1022.5
20260902114405 74 323 2.0 9.0 0.00 0.00 0.00 79 1022.5
20260902113404 74 343 1.0 3.0 0.00 0.00 0.00 80 1022.5
20260902112903 74 329 1.0 9.0 0.00 0.00 0.00 80 1022.6
20260902112404 74 352 3.0 8.0 0.00 0.00 0.00 81 1022.6
20260902111904 73 67 1.0 3.0 0.00 0.00 0.00 82 1022.6
20260902111404 72 295 0.0 3.0 0.00 0.00 0.00 83 1022.7
20260902110904 72 23 3.0 7.0 0.00 0.00 0.00 83 1022.7
20260902110403 72 63 3.0 6.0 0.00 0.00 0.00 83 1022.7
20260902105905 72 184 2.0 5.0 0.00 0.00 0.00 84 1022.8
20260902105404 71 70 1.0 3.0 0.00 0.00 0.00 85 1022.7
20260902104904 71 69 0.0 3.0 0.00 0.00 0.00 85 1022.7
20260902104403 71 64 2.0 5.0 0.00 0.00 0.00 86 1022.7
20260902103405 70 41 1.0 3.0 0.00 0.00 0.00 87 1022.8
20260902102906 70 39 2.0 3.0 0.00 0.00 0.00 88 1022.8
20260902102403 69 190 1.0 3.0 0.00 0.00 0.00 88 1022.8
20260902101904 69 246 1.0 3.0 0.00 0.00 0.00 88 1022.8
20260902101404 69 246 0.0 2.0 0.00 0.00 0.00 88 1022.7
20260902095904 69 246 0.0 2.0 0.00 0.00 0.00 89 1022.7
20260902095404 68 245 0.0 2.0 0.00 0.00 0.00 90 1022.7
20260902094904 68 245 1.0 2.0 0.00 0.00 0.00 90 1022.7
20260902094404 68 244 1.0 3.0 0.00 0.00 0.00 90 1022.7
20260902093904 68 287 1.0 3.0 0.00 0.00 0.00 91 1022.6
20260902093405 67 302 3.0 5.0 0.00 0.00 0.00 91 1022.6
20260902092904 68 266 1.0 3.0 0.00 0.00 0.00 92 1022.5
20260902092404 67 264 3.0 6.0 0.00 0.00 0.00 92 1022.4
20260902091904 67 286 0.0 3.0 0.00 0.00 0.00 93 1022.4
20260902091404 67 286 1.0 3.0 0.00 0.00 0.00 93 1022.4
20260902090904 67 267 1.0 3.0 0.00 0.00 0.00 93 1022.4
20260902090404 67 265 3.0 6.0 0.00 0.00 0.00 93 1022.4
20260902085404 66 248 2.0 6.0 0.00 0.00 0.00 93 1022.3
20260902084404 66 248 2.0 3.0 0.00 0.00 0.00 94 1022.2
20260902083404 67 268 3.0 6.0 0.00 0.00 0.00 93 1022.1
20260902082905 67 270 2.0 3.0 0.00 0.00 0.00 93 1022.0
20260902082404 67 300 0.0 2.0 0.00 0.00 0.00 93 1021.9
20260902081904 67 299 0.0 3.0 0.00 0.00 0.00 93 1021.9
20260902081404 67 340 0.0 3.0 0.00 0.00 0.00 94 1021.8
20260902080904 67 5 0.0 1.0 0.00 0.00 0.00 94 1021.8
20260902080404 67 5 0.0 2.0 0.00 0.00 0.00 94 1021.8
20260902075404 66 5 0.0 0.0 0.00 0.00 0.00 94 1021.8
20260902074904 66 5 0.0 0.0 0.00 0.00 0.00 95 1021.8
20260902074403 66 5 0.0 0.0 0.00 0.00 0.00 96 1021.7
20260902073404 65 5 0.0 0.0 0.00 0.00 0.00 96 1021.6
20260902072904 65 5 0.0 2.0 0.00 0.00 0.00 96 1021.6
20260902072404 65 5 2.0 3.0 0.00 0.00 0.00 96 1021.5
20260902071904 65 332 0.0 0.0 0.00 0.00 0.00 97 1021.4
20260902071404 65 325 0.0 0.0 0.00 0.00 0.00 97 1021.4
20260902070904 65 325 0.0 0.0 0.00 0.00 0.00 97 1021.3
20260902070404 65 325 0.0 0.0 0.00 0.00 0.00 97 1021.3
20260902065904 64 325 0.0 0.0 0.00 0.00 0.00 97 1021.4
20260902065404 64 325 0.0 0.0 0.00 0.00 0.00 97 1021.4
20260902064904 64 325 0.0 0.0 0.00 0.00 0.00 97 1021.3
20260902064404 64 325 0.0 0.0 0.00 0.00 0.00 97 1021.3
20260902063904 64 325 0.0 0.0 0.00 0.00 0.00 98 1021.3
20260902063404 64 325 0.0 0.0 0.00 0.00 0.00 98 1021.2
20260902062904 64 325 0.0 0.0 0.00 0.00 0.00 98 1021.2
20260902062405 64 325 0.0 0.0 0.00 0.00 0.00 98 1021.2
20260902061904 64 325 0.0 0.0 0.00 0.00 0.00 98 1021.1
20260902061404 64 325 0.0 0.0 0.00 0.00 0.00 98 1021.1
20260902060904 64 325 0.0 0.0 0.00 0.00 0.00 98 1021.1
20260902060404 64 325 0.0 0.0 0.00 0.00 0.00 98 1021.1
20260902055904 64 325 0.0 0.0 0.00 0.00 0.00 98 1021.2
20260902055404 64 325 0.0 0.0 0.00 0.00 0.00 98 1021.1
20260902054404 64 325 0.0 0.0 0.00 0.00 0.00 98 1021.0
20260902053904 64 325 0.0 0.0 0.00 0.00 0.00 98 1021.0
20260902053404 64 325 0.0 0.0 0.00 0.00 0.00 98 1021.0
20260902052904 64 325 0.0 0.0 0.00 0.00 0.00 98 1021.0
20260902052404 64 325 0.0 0.0 0.00 0.00 0.00 98 1020.9
20260902051904 64 325 0.0 0.0 0.00 0.00 0.00 98 1020.9
20260902050905 64 325 0.0 0.0 0.00 0.00 0.00 98 1020.9
20260902050404 64 325 0.0 0.0 0.00 0.00 0.00 98 1020.8
20260902045904 64 325 0.0 0.0 0.00 0.00 0.00 98 1020.9
20260902044904 64 325 0.0 0.0 0.00 0.00 0.00 98 1020.9
20260902044404 64 325 0.0 0.0 0.00 0.00 0.00 98 1020.9
20260902043404 64 325 0.0 0.0 0.00 0.00 0.00 98 1021.0
20260902042904 64 325 0.0 0.0 0.00 0.00 0.00 98 1020.9
20260902042404 64 325 0.0 0.0 0.00 0.00 0.00 98 1020.9
20260902041904 64 325 0.0 0.0 0.00 0.00 0.00 98 1021.0
20260902041404 64 325 0.0 0.0 0.00 0.00 0.00 98 1021.0
20260902040904 64 325 0.0 0.0 0.00 0.00 0.00 98 1021.0
20260902040404 64 325 0.0 0.0 0.00 0.00 0.00 98 1021.0
20260902034904 64 325 0.0 0.0 0.00 0.00 0.00 98 1021.0
20260902034404 64 325 0.0 0.0 0.00 0.00 0.00 98 1021.0
20260902033904 64 325 0.0 0.0 0.00 0.00 0.00 98 1021.0
20260902033404 64 325 0.0 0.0 0.00 0.00 0.00 98 1021.1
20260902032904 64 325 0.0 0.0 0.00 0.00 0.00 98 1021.1
20260902032404 64 323 0.0 0.0 0.00 0.00 0.00 97 1021.1
20260902031903 64 323 0.0 0.0 0.00 0.00 0.00 97 1021.1
20260902031403 64 323 0.0 0.0 0.00 0.00 0.00 97 1021.1
20260902030404 64 322 0.0 0.0 0.00 0.00 0.00 97 1021.0
20260902025905 64 322 0.0 0.0 0.00 0.00 0.00 97 1021.0
20260902024904 64 307 0.0 0.0 0.00 0.00 0.00 97 1021.0
20260902024404 64 300 0.0 0.0 0.00 0.00 0.00 97 1020.9
20260902023904 64 300 0.0 0.0 0.00 0.00 0.00 97 1021.0
20260902023404 65 300 0.0 0.0 0.00 0.00 0.00 97 1020.9
20260902022404 65 300 0.0 0.0 0.00 0.00 0.00 97 1020.9
20260902021904 65 300 0.0 0.0 0.00 0.00 0.00 96 1020.8
20260902021405 65 300 0.0 0.0 0.00 0.00 0.00 96 1020.8
20260902020904 65 300 0.0 2.0 0.00 0.00 0.00 96 1020.8
20260902015904 65 313 1.0 2.0 0.00 0.00 0.00 96 1020.8
20260902015404 65 331 0.0 3.0 0.00 0.00 0.00 96 1020.8